Location: Altleiningen
(49.5078°N, 8.0741°E)
Time: 04:26:55
(UTC+00:00)

USA 306 - Pass Details

Date: 03 March 2021
Orbit: 564 x 577 km, 54.0° (Epoch: 10 April)

Event Time Altitude Azimuth Distance (km) Brightness Sun altitude
Rises 18:19:21 0° 273° (W) 2,783 8.7 -11.4°
Reaches altitude 10° 18:21:41 10° 279° (W) 1,883 7.1 -11.8°
Maximum altitude 18:25:49 46° 354° (N) 772 3.6 -12.5°
Enters shadow 18:28:59 16° 64° (ENE) 1,521 4.6 -13.0°
